Other Public Products
Issued by NWS Grand Forks, ND

Home | Current Version | Previous Version | Graphics & Text | Print | Product List | Glossary On
Versions: 1 2 3 4 5 6 7 8 9 10 11 12 13 14 15 16 17 18 19 20 21 22 23 24 25 26 27 28 29 30 31 32 33 34 35 36 37 38 39 40 41 42 43 44 45 46 47 48 49 50
000
FPUS83 KFGF 281831
OPUFGF
PRAIRIE TO PINES WEATHER ROUNDUP
NATIONAL WEATHER SERVICE EASTERN NORTH DAKOTA/GRAND FORKS ND
100 PM CDT WED JUN 28 2017

 **SATELLITE DATA USED TO AUGMENT SKY COVER AT AUTOMATED STATIONS**
 *****  WEATHER ACROSS EASTERN NORTH DAKOTA  *****

CITY           SKY/WX    TMP DP  RH WIND       PRES   REMARKS
GRAND FORKS    LGT RAIN  61  61 100 N12       29.54R
6HR MIN TEMP:  60; 6HR MAX TEMP:  62; 6HR PCP:  2.95;

GRAND FORKS AF LGT RAIN  61  61 100 NE8       29.56R FOG
GRAND CITY NWS NOT AVBL
BUXTON           N/A     62  61  98 N12         N/A
DEVILS LAKE    FAIR      70  59  68 NW16      29.60R
6HR MIN TEMP:  62; 6HR MAX TEMP:  70; 6HR PCP:  0.05;

FARGO          CLOUDY    67  63  87 W18       29.48R
6HR MIN TEMP:  65; 6HR MAX TEMP:  69; 6HR PCP:  0.15;

WAHPETON ARPT  MOCLDY    72  61  68 NW17G23   29.49S
$$

 *****  WEATHER ACROSS CENTRAL AND WESTERN NORTH DAKOTA  *****

CITY           SKY/WX    TMP DP  RH WIND       PRES   REMARKS
JAMESTOWN      PTSUNNY   75  61  61 N18G26    29.58R
6HR MIN TEMP:  61; 6HR MAX TEMP:  73;

BISMARCK       FAIR      76  45  33 N17G23    29.68R
6HR MIN TEMP:  63; 6HR MAX TEMP:  76;

MINOT          FAIR      75  45  34 NW20G26   29.67R
6HR MIN TEMP:  60; 6HR MAX TEMP:  76;

MINOT AFB      FAIR      74  45  35 NW21      29.66R
6HR MIN TEMP:  59; 6HR MAX TEMP:  74;

GARRISON         N/A     73  41  31 N16G23    29.68R
6HR MIN TEMP:  59; 6HR MAX TEMP:  75;

WILLISTON      FAIR      79  39  23 NE5       29.73S
6HR MIN TEMP:  50; 6HR MAX TEMP:  80;

DICKINSON      FAIR      78  33  19 NW10G22   29.73S
6HR MIN TEMP:  54; 6HR MAX TEMP:  78;

HETTINGER      FAIR      78  31  17 NW14G21   29.76S
6HR MIN TEMP:  58; 6HR MAX TEMP:  79;

$$

 *****  OTHER OBSERVATIONS NORTHEAST NORTH DAKOTA  *****

CITY           SKY/WX    TMP DP  RH WIND       PRES   REMARKS
WALHALLA       NOT AVBL
LANGDON        FAIR      70  66  88 NW18      29.59R
CAVALIER       CLOUDY    66  63  88 E7        29.56R
GRAFTON        CLOUDY    63  63 100 NE6       29.58R
CANDO          NOT AVBL
FORT TOTTEN      N/A     71  60  67 NW7       29.95S
ROLLA            N/A     70  52  52 N18G25    29.64R
RUGBY          NOT AVBL
 ***** THE ABOVE OBSERVATIONS ARE NON NWS ARE NOT QUALITY
        CONTROLLED AND MAY MIS-REPORT RAIN FOR SNOW...
$$

 *****  OTHER OBSERVATIONS SOUTHEAST NORTH DAKOTA *****

CITY           SKY/WX    TMP DP  RH WIND       PRES   REMARKS
COOPERSTOWN    CLOUDY    64  63  94 N13       29.58R
VALLEY CITY    CLOUDY    68  66  94 NW21G28   29.57R
OAKES          NOT AVBL
GWINNER        CLOUDY    72  63  73 W15G23    29.55S
SHEYENNE NWR     N/A     69  62  78 NW13      29.95S
BUFFALO          N/A     65  60  84 SW16        N/A
WYNDMERE       NOT AVBL
 ***** THE ABOVE OBSERVATIONS ARE NON NWS ARE NOT QUALITY
       CONTROLLED AND MAY MIS-REPORT RAIN FOR SNOW...
$$

  *****  WEATHER ACROSS NORTHERN MINNESOTA  *****

CITY           SKY/WX    TMP DP  RH WIND       PRES   REMARKS
FLAG ISLAND    CLOUDY    63  54  72 E3        29.60S
WARROAD        DRIZZLE   61  55  82 E9        29.59S
ROSEAU         LGT RAIN  61  55  82 E10       29.58R
HALLOCK        LGT RAIN  63  61  94 NE5       29.55R
THF RVR FALLS  RAIN      59  58  96 NE8       29.54R FOG
6HR MIN TEMP:  59; 6HR MAX TEMP:  60; 6HR PCP:  0.39;

HALSTAD          N/A     64  63  96 NW9         N/A
FOSSTON        DRIZZLE   61  59  94 E5        29.51R
BAUDETTE       LGT RAIN  58  57  97 E7        29.59S FOG
6HR MIN TEMP:  57; 6HR MAX TEMP:  63; 6HR PCP:  0.09;

WASKISH        DRIZZLE   61  57  88 E8        29.56F
CROOKSTON      RAIN      61  61 100 NE9       29.52R
$$
  *****  WEATHER ACROSS CENTRAL AND WEST MINNESOTA  *****

CITY           SKY/WX    TMP DP  RH WIND       PRES   REMARKS
BEMIDJI        CLOUDY    62  59  91 E9        29.52F
PARK RAPIDS    CLOUDY    63  59  87 E7        29.50F
6HR MIN TEMP:  59; 6HR MAX TEMP:  64; 6HR PCP: TRACE;

WADENA         CLOUDY    66  63  88 E5        29.48S
DETROIT LAKES  CLOUDY    68  63  83 SE5       29.49S
MOORHEAD       PTSUNNY   70  63  78 NW15      29.49R
FERGUS FALLS   CLOUDY    70  64  83 NW8       29.46R
ELBOW LAKE     CLOUDY    68  64  88 NW9G16    29.49R
6HR MIN TEMP:  62; 6HR MAX TEMP:  70; 6HR PCP:  0.13;

MORRIS MN      FAIR      72  63  73 W21G28    29.50R
STAPLES        CLOUDY    64  63  94 SE3       29.48F
WHEATON        FAIR      73  63  68 W14G22    29.52R
$$
  *****  WEATHER ELSEWHERE ACROSS MINNESOTA  *****

CITY           SKY/WX    TMP DP  RH WIND       PRES   REMARKS
DULUTH         LGT RAIN  54  54 100 E15       29.60F FOG
6HR MIN TEMP:  54; 6HR MAX TEMP:  57; 6HR PCP:  0.51;

INTRNTL FALLS  LGT RAIN  60  58  92 E8        29.61S FOG
6HR MIN TEMP:  56; 6HR MAX TEMP:  62; 6HR PCP:  0.09;

ELY            RAIN      59  54  82 E5        29.64F
CLOQUET        LGT RAIN  55  54  94 E8        29.59S
BRAINERD       LGT RAIN  64  63  96 SE7       29.51F
6HR MIN TEMP:  58; 6HR MAX TEMP:  64; 6HR PCP:  0.07;

HIBBING        RAIN      57  57 100 E6        29.59F FOG
6HR MIN TEMP:  53; 6HR MAX TEMP:  61; 6HR PCP:  0.05;

ALEXANDRIA     CLOUDY    68  62  81 W17       29.50S
6HR MIN TEMP:  62; 6HR MAX TEMP:  69;

SAINT CLOUD    CLOUDY    69  67  93 S12       29.50F
6HR MIN TEMP:  62; 6HR MAX TEMP:  69; 6HR PCP:  0.12;

MINNEAPOLIS    PTSUNNY   75  66  73 S10G16    29.55F
6HR MIN TEMP:  63; 6HR MAX TEMP:  75; 6HR PCP:  0.20;

$$

  *****  WEATHER ACROSS SOUTH DAKOTA  *****

CITY           SKY/WX    TMP DP  RH WIND       PRES   REMARKS
SIOUX FALLS    FAIR      79  67  66 W12       29.62R
6HR MIN TEMP:  67; 6HR MAX TEMP:  80;

BROOKINGS      FAIR      78  64  61 W16       29.60R
WATERTOWN      FAIR      75  62  64 NW14      29.59R
6HR MIN TEMP:  64; 6HR MAX TEMP:  76; 6HR PCP: TRACE;

HURON          FAIR      82  63  52 NW14G23   29.61R
6HR MIN TEMP:  66; 6HR MAX TEMP:  82; 6HR PCP:  0.03;

SISSETON         N/A     74  64  71 NW22G31   29.51R
ABERDEEN       FAIR      77  63  61 N12       29.60R
6HR MIN TEMP:  66; 6HR MAX TEMP:  77;

MITCHELL       FAIR      85  61  44 W13       29.62S
PIERRE         FAIR      79  57  46 NW17G24   29.68R
6HR MIN TEMP:  64; 6HR MAX TEMP:  79; 6HR PCP:  0.01;

MOBRIDGE       FAIR      81  43  26 NW20      29.65R
RAPID CITY     FAIR      78  49  35 N12G17    29.79F
6HR MIN TEMP:  58; 6HR MAX TEMP:  78;

$$

  *****  SOME WEATHER IN NEARBY STATES *****

CITY           SKY/WX    TMP DP  RH WIND       PRES   REMARKS
GLASGOW MT     FAIR      67  45  45 NE22G30   29.72F
6HR MIN TEMP:  51; 6HR MAX TEMP:  70; 6HR PCP:  0.01;

GREAT FALLS MT FAIR      76  29  17 W16G28    29.74F
6HR MIN TEMP:  50; 6HR MAX TEMP:  76;

CHEYENNE WY    FAIR      79  37  22 SW14G23   29.95F
6HR MIN TEMP:  52; 6HR MAX TEMP:  79;

SCOTTSBLUFF NE FAIR      79  45  29 S6        29.85F
6HR MIN TEMP:  53; 6HR MAX TEMP:  80;

OMAHA NE       PTSUNNY   85  71  63 S14G23    29.67F HX  90
6HR MIN TEMP:  68; 6HR MAX TEMP:  85;

DES MOINES IA  FAIR      84  68  58 S21G29    29.69F
6HR MIN TEMP:  68; 6HR MAX TEMP:  84; 6HR PCP: TRACE;

DAVENPORT IA   NOT AVBL
CHICAGO IL     CLOUDY    65  59  81 S17G28    29.91F
6HR MIN TEMP:  63; 6HR MAX TEMP:  68; 6HR PCP:  0.20;

EAU CLAIRE WI  CLOUDY    67  65  93 S15       29.64F
6HR MIN TEMP:  62; 6HR MAX TEMP:  68; 6HR PCP:  0.21;

LA CROSSE WI   CLOUDY    72  67  84 S12       29.69S
6HR MIN TEMP:  66; 6HR MAX TEMP:  72; 6HR PCP:  0.45;

$$

  *****  SOME NATIONAL WEATHER *****

CITY           SKY/WX    TMP DP  RH WIND       PRES   REMARKS
LA GUARDIA NY  FAIR      77  49  37 NW12G25   30.11S
6HR MIN TEMP:  65; 6HR MAX TEMP:  78;


USA.gov is the U.S. government's official web portal to all federal, state and local government web resources and services.